Details From TJSJ - San Juan - Luis Munoz Marin Intl
To MDPP - Puerto Plata Gregorio Luperon Intl
Flight Number -
Tags Standard
Created
Modified
Stats Distance 279 nm / 517 km
Max Altitude 0 ft / 0 m
Waypoints 6
Social Downloads 14
Likes 0
Share

Download

Looking for another format? Having issues loading an existing format? Contact us
Advertisement - Login to hide

Notes

None

Route

TJSJ JAAWS IDAHO BETIR KOBET MDPP

ID Type Via Altitude (ft/m) Position (lat/lon) Dist (leg/tot) Name
O TJSJ APT - 0 / 0 18.43942 / -66.00183 - / 0 nm San Juan - Luis Munoz Marin Intl
JAAWS FIX - 0 / 0 18.97834 / -66.54066 44 / 44 nm
IDAHO FIX - 0 / 0 19.26052 / -67.63955 64 / 109 nm
BETIR FIX - 0 / 0 19.34167 / -68.60500 54 / 164 nm
KOBET FIX - 0 / 0 19.45833 / -69.71778 63 / 227 nm
O MDPP APT - 0 / 0 19.75744 / -70.56979 51 / 278 nm Puerto Plata Gregorio Luperon Intl

Altitude Profile

Advertisement - Login to hide

Weather


0- 5 10 15 20 25 30 35+ Temperature / °C

Clouds and Precipitation
Forecast for 2021-09-20 06:00 UTC. Updated 34 minutes ago

Ground ~20,000 ft ~40,000 ft Winds

TJSJ

Details ICAO TJSJ (SJU)
Name Luis Munoz Marin Intl
Region USA (Puerto Rico)
Timezone America/Puerto_Rico (UTC-4.0)
Stats Elevation 8 ft / 2 m (AMSL)
Location 18.438700° -66.002200°
Runways 2
Magnetic Variation 13.394° W

METAR

TJSJ 200356Z 12003KT 7SM -RA SCT023 SCT033 27/24 A2992

Decode

TAF

TJSJ 200339Z 2004/2024 04008KT P6SM VCSH SCT030 SCT050 TEMPO 2004/2006 05010G20KT 4SM SHRA BKN025 FM200700 VRB05KT P6SM -SHRA VCTS SCT025CB BKN060 FM201900 05007KT P6SM VCSH FEW025 SCT040

Decode

Departure Runways

ID Width Length Bearing (true/mag) Surface Threshold Overrun Markings Lighting
08 200 ft / 61 m 10,410 ft / 3,173 m 66.85° / 80.25° ASPHALT 404 ft / 123 m 394 ft / 120 m PREC-APP CENTERLINE EDGE THRESHOLD MALSR REIL-OMNI
10 151 ft / 46 m 8,006 ft / 2,440 m 90.14° / 103.54° CONCRETE 0 ft / 0 m 203 ft / 62 m PREC-APP CENTERLINE EDGE THRESHOLD MALSR REIL-OMNI
26 200 ft / 61 m 10,410 ft / 3,173 m 246.86° / 260.26° ASPHALT 400 ft / 122 m 397 ft / 121 m PREC-APP CENTERLINE EDGE THRESHOLD REIL-OMNI
28 151 ft / 46 m 8,006 ft / 2,440 m 270.15° / 283.54° CONCRETE 0 ft / 0 m 200 ft / 61 m PREC-APP CENTERLINE EDGE THRESHOLD REIL-OMNI

MDPP

Details ICAO MDPP (POP)
Name Puerto Plata Gregorio Luperon International
Region Dominican Republic
Timezone America/Santo_Domingo (UTC-4.0)
Stats Elevation 15 ft / 5 m (AMSL)
Location 19.757900° -70.570000°
Runways 1
Magnetic Variation 11.492° W

METAR

MDPP 200300Z 00000KT 9999 FEW018 24/24 Q1014

Decode

TAF

TAF MDPP 192200Z 2000/2100 00000KT 9999 FEW018 BECMG 2014/2016 09010KT

Decode

Destination Runways

ID Width Length Bearing (true/mag) Surface Threshold Overrun Markings Lighting
08 151 ft / 46 m 10,103 ft / 3,080 m 72.94° / 84.43° ASPHALT 0 ft / 0 m 0 ft / 0 m PREC-APP EDGE THRESHOLD REIL-OMNI
26 151 ft / 46 m 10,103 ft / 3,080 m 252.95° / 264.44° ASPHALT 0 ft / 0 m 0 ft / 0 m PREC-APP EDGE THRESHOLD REIL-OMNI

Popular Alternatives